Weather in Khaldeyevo

Russia / Tomsk District     56°38′03″N   85°35′25″E
temp.,
°C
wind,
m/s
gust,
m/s
humid.,
%
clouds,
%
prec.,
mm/h
press.,
hPa
HPBL,
m
15 may, sat
sat1501:00+8sw255899 0.0 1020151
04:00+9sw51451100 0.0 1018450
07:00+11wsw6154994 0.0 1017596
10:00+16wsw6115149 0.1 1015693
13:00+21wsw61043100 0.1 10141155
16:00+24w6113997 0.0 10122150
19:00+22wsw61446100 0.3 10091631
22:00+10e1596100 14.6 1016210
16 may, sun
sun1601:00+9nne2598100 14.6 1016144
04:00+7ne259897 0.0 1016151
07:00+8e359077 0.0 1015235
10:00+11ese2477100 0.0 1014519
13:00+8ne4996100 6.3 1013400
16:00+7e4895100 1.1 1013300
19:00+6ene4894100 1.2 1013388
22:00+5ne269626 0.0 1015278
17 may, mon
mon1701:00+3ne249818 0.0 1016104
04:00+2nne24955 0.0 101672
07:00+4ne2485100 0.0 1018165
10:00+9e2262100 0.0 1018523
13:00+12nw0048100 0.0 1017852
16:00+14wnw124697 0.0 10161343
19:00+14nnw025291 0.0 1015669
22:00+10se3874100 0.1 1013217
18 may, tue
tue1801:00+10s41174100 0.1 1010307
04:00+11sw41195100 0.4 1007588
07:00+12sw3898100 1.3 1004390
10:00+14wnw2593100 0.4 1003433
13:00+14w3788100 0.6 1004669
16:00+12nnw2597100 2.9 1005369
19:00+11ne3595100 2.9 1006439
22:00+8ne3895100 0.1 1008536
19 may, wed
wed1901:00+7ne2795100 0.4 1009451
04:00+7nne2796100 0.1 1009331
07:00+6ne3886100 0.1 1009378
10:00+7ne4861100 0.0 1010607
13:00+12nne453498 0.0 10091902
16:00+11ne4530100 0.0 10101903
19:00+10nne363960 0.0 10102233
22:00+5nne22598 0.0 101125